Weather in Vladislavovka

Russia / Republic of Crimea     45°09′51″N   35°22′41″E
temp.,
°C
wind,
m/s
gust,
m/s
humid.,
%
clouds,
%
prec.,
mm/h
press.,
hPa
HPBL,
m
28 february, sun
sun2800:00+5nnw7991100 2.0 1018507
03:00+5nnw7984100 2.2 1018610
06:00+5nnw81080100 0.1 1019710
09:00+4nnw799395 0.3 1020556
12:00+4nnw7983100 0.3 1021772
15:00+4nnw798385 0.4 1021706
18:00+4nnw687680 0.1 1022824
21:00+4nw687974 0.2 1023554
1 march, mon
mon100:00+4nw577998 0.2 1024596
03:00+3wnw468992 0.3 1024263
06:00+2wnw4586100 0.1 1025396
09:00+3wnw457996 0.1 1026463
12:00+4nw447113 0.0 1027706
15:00+5n437046 0.1 1027625
18:00+4nne337174 0.0 1028556
21:00+2n127871 0.0 1029211
2 march, tue
tue200:00+2nw23790 0.0 1030211
03:00+3nw357334 0.1 1030428
06:00+2nnw237177 0.0 1030349
09:00+3wnw456863 0.1 1030741
12:00+4wnw56610 0.0 1030894
15:00+6w68560 0.0 10281211
18:00+6w696334 0.0 1026837
21:00+3w8127367 0.0 1026682
3 march, wed
wed300:00+4w7137847 0.0 1025610
03:00+5w7128173 0.1 1024531
06:00+4nw699175 0.0 1024419
09:00+4wnw678474 0.0 1025486
12:00+6wnw5776100 0.0 1025596
15:00+6nnw697395 0.1 1025557
18:00+6nnw586887 0.1 1025699
21:00+5n346988 0.1 102792
4 march, thu
thu400:00+5wnw34677 0.0 102847
03:00+4wnw22723 0.0 102826
06:00+3w22730 0.0 102741
09:00+4s22620 0.0 1028101
12:00+8s45570 0.0 1027784
15:00+9ssw78594 0.0 1025889
18:00+7s710733 0.0 1024565
21:00+6s610838 0.0 1023303